Simultaneous Nadir Overpasses (SNOs) Predictions

Prediction of SNOs near equator between AQUA and NPP Satellite Orbit:

Table of predicted SNOs near equator for the next 14.0 days since TLE Epoch: 5/18/2013
Index Date (AQUA) Time (AQUA) AQUA Lat,Lon Date (NPP) Time (NPP) NPP Lat,Lon Distance(km) Time Diff (sec)
1 05/18/2013 16:33:04 29.99, -49.00 05/18/2013 16:23:04 30.26, -49.86 87.02 600
2 05/18/2013 17:14:53 -2.72, 124.89 05/18/2013 17:05:51 -2.54, 124.18 81.54 542
3 05/21/2013 08:42:53 5.80, 72.45 05/21/2013 08:33:00 5.70, 71.91 59.93 593
4 05/21/2013 09:31:00 -1.27,-118.93 05/21/2013 09:22:22 -1.09,-119.72 89.75 518
5 05/24/2013 00:58:59 4.33,-171.37 05/24/2013 00:49:30 4.19,-171.97 68.45 569
6 05/24/2013 01:47:07 0.14, -2.76 05/24/2013 01:38:53 0.35, -3.62 98.28 494
7 05/26/2013 16:33:03
